ATLAS 5 CENTAUR DEB, 52044

Orbit data source: Space-Track

ATLAS 5 CENTAUR DEB, 52044 is space debris in HEO originally from a launch on Wed, 17 Oct 2018 UTC launched from the Air Force Eastern Test Range (AFETR). Debris objects in space refer to the collection of defunct objects orbiting the Earth. Examples of debris include non-operational satellites, rocket bodies, and fragments generated from explosions, collisions, or faulty payload assembly.

Loading next visibility...
Identifier
52044, 2018-079GN
Orbit
HEO
Country
Flag of USUS
Related business
Flag of USUnited Launch Alliance/Lockheed Martin (US)
Manufacturer
ULA Decatur
Mission
Spacecraft
Bus & Motor
Unknown
Mass
Unknown
Launch date (UTC)
2018-10-17 (7 years ago)
Launch vehicle
Unknown
Launch site
Air Force Eastern Test Range (AFETR)
Object type
Payload
Rocket body
Debris
Shape & HBR
Unknown shape, 1.1 m
Radar Cross Section
RCS unknown

Expand to show TLE details & history
Last TLE update: 1 day ago

TLE from 1 day ago
0 ATLAS 5 CENTAUR DEB
1 52044U 18079GN  25342.61638731 -.00000100  00000-0  00000-0 0  9993
2 52044  12.6953  56.9749 4297354 283.7832  33.1219  1.90879167 30235
Epoch: 2025-12-08T14:47Z
TLE epoch observation values (Epoch: 2025-12-08T14:47:35.863Z)
Latitude
0.0001°
Longitude
117.39879°
Altitude
13,947.337 km
Speed
4.97 km/s
True Right ascension
03h 47m 38s
True Declination
0° 00' 00"
Sunlit
Object was in daylight at epoch
Visualization orbit readout
Latitude
Unknown
Longitude
Unknown
Altitude
Unknown
Speed
Unknown
Apparent Right ascension
Unknown
Apparent Declination
Unknown
Sunlit
N/A
Visualization observer readout
Local Sidereal Time
19:07:52
Azimuth
Unknown
Elevation
Unknown
Doppler factor
Unknown
Orbital elements
Apogee altitude
32,872.864 km
Perigee altitude
9,277.527 km
Semi-major axis
27,453.332 km
Eccentricity
0.42974
Inclination
12.6953°
RAAN
56.9749°
Arg. of periapsis
283.7832°
True anomaly
76.22631°
Mean anomaly
33.1219°
Eccentric anomaly
52.71091°
Mean motion
0.47715 °/min
Orbital period
754.49 mins
BSTAR
0
Loading maneuver chart data...
Computing Atmospheric mass density...

Documentation

Showing up to 5 results
|